Overview Statistics Trail Chart Weather Telemetry Raw packets
 

This is the latest recevied weather packets stored in our database for station/object N6ZHV-13. If no packets are shown the sender has not sent any weather packets the latest 10 day(s).

<< 8 9 10 11 12 13 14 >>
Time Temp. Humidity Pressure Rain* Wind** Luminosity Snow
1788622321 21.67° C 63% 1010.1 hPa 0 mm - - -
1788622021 21.11° C 58% 1010 hPa 0 mm - - -
1788621721 20.56° C 57% 1010 hPa 0 mm - - -
1788621421 20.56° C 55% 1009.9 hPa 0 mm - - -
1788621121 20° C 55% 1009.7 hPa 0 mm - - -
1788620821 20° C 57% 1009.8 hPa 0 mm - - -
1788620521 20° C 57% 1009.8 hPa 0 mm - - -
1788620221 19.44° C 59% 1009.7 hPa 0 mm - - -
1788619921 19.44° C 61% 1009.6 hPa 0 mm - - -
1788619621 18.89° C 64% 1009.6 hPa 0 mm - - -
1788619321 18.33° C 64% 1009.5 hPa 0 mm - - -
1788619021 18.33° C 66% 1009.2 hPa 0 mm - - -
1788618721 17.78° C 70% 1009.4 hPa 0 mm - - -
1788618421 17.22° C 70% 1009.3 hPa 0 mm - - -
1788618121 17.22° C 71% 1009.3 hPa 0 mm - - -
1788617821 16.67° C 71% 1009.2 hPa 0 mm - - -
1788617521 16.67° C 73% 1009.2 hPa 0 mm - - -
1788617221 16.11° C 72% 1009.1 hPa 0 mm - - -
1788616921 15.56° C 74% 1009 hPa 0 mm - - -
1788616621 15° C 75% 1008.9 hPa 0 mm - - -
1788616321 15° C 77% 1008.9 hPa 0 mm - - -
1788616021 15° C 77% 1008.8 hPa 0 mm - - -
1788615721 15° C 78% 1008.7 hPa 0 mm - - -
1788615421 15° C 80% 1008.7 hPa 0 mm - - -
1788615121 15° C 78% 1008.7 hPa 0 mm - - -

* Rain latest hour (hover to see other rain measurements)
** Current wind speed in m/s (hover to see current wind gust speed)